This demonstration page uses our WeatherBlox Daily Observations layout. Learn more.

Left ArrowRight Arrow

39.08367, -84.50855

Hourly Observations for August 23, 2017

Temp ( °F °C ) Dew Point ( °F °C ) Humidity (%) Winds ( mph kmh ) Pressure ( in mb ) Visibility ( mi km ) Precip ( " mm )
12:53 am 00:53 Clear 73 22.8 66 18.9 79 79 NNW 9 15 29.94 1014 10 16.0934 N/A
1:53 am 01:53 Cloudy 72 22.2 66 18.9 82 82 NW 5 7 29.96 1014 10 16.0934 N/A
2:53 am 02:53 Mostly Cloudy 71 21.7 63 17.2 76 76 N 12 19 29.96 1015 10 16.0934 N/A
3:53 am 03:53 Partly Cloudy 68 20 59 15 73 73 N 6 9 29.96 1015 10 16.0934 N/A
4:53 am 04:53 Mostly Cloudy 66 18.9 59 15 78 78 N N/A 29.98 1015 10 16.0934 N/A
5:53 am 05:53 Mostly Clear 62 16.7 61 16.1 96 96 N N/A 29.98 1015 10 16.0934 N/A
6:53 am 06:53 Clear 60 15.6 60 15.6 100 100 N N/A 30 1016 10 16.0934 N/A
7:53 am 07:53 Sunny 61 16.1 61 16.1 100 100 N N/A 30.01 1016 10 16.0934 N/A
8:53 am 08:53 Sunny 68 20 61 16.1 78 78 N N/A 30.01 1016 10 16.0934 N/A
9:53 am 09:53 Sunny 72 22.2 58 14.4 61 61 N N/A 30.02 1017 10 16.0934 N/A
10:53 am 10:53 Sunny 74 23.3 55 12.8 52 52 ENE 7 11 30.03 1017 10 16.0934 N/A
11:53 am 11:53 Sunny 77 25 55 12.8 47 47 VRB 6 9 30.03 1017 10 16.0934 N/A
12:53 pm 12:53 Partly Cloudy 78 25.6 54 12.2 43 43 VRB 5 7 30.02 1017 10 16.0934 N/A
1:53 pm 13:53 Mostly Cloudy 75 23.9 52 11.1 45 45 WNW 6 9 30.01 1016 10 16.0934 N/A
2:53 pm 14:53 Mostly Sunny 78 25.6 54 12.2 43 43 N 8 13 30 1016 10 16.0934 N/A
3:53 pm 15:53 Mostly Cloudy 80 26.7 57 13.9 45 45 NNW 5 7 29.98 1015 10 16.0934 N/A
4:53 pm 16:53 Partly Cloudy 80 26.7 56 13.3 44 44 VRB 5 7 29.98 1015 10 16.0934 N/A
5:53 pm 17:53 Partly Cloudy 77 25 53 11.7 43 43 NW 7 11 29.97 1015 10 16.0934 N/A
6:53 pm 18:53 Partly Cloudy 77 25 54 12.2 45 45 N 12 19 29.97 1015 10 16.0934 N/A
7:53 pm 19:53 Mostly Sunny 75 23.9 53 11.7 46 46 NNW 9 15 29.97 1015 10 16.0934 N/A
8:53 pm 20:53 Clear 72 22.2 53 11.7 52 52 NNW 6 9 29.98 1015 10 16.0934 N/A
9:53 pm 21:53 Clear 64 17.8 58 14.4 81 81 N N/A 29.99 1016 10 16.0934 N/A
10:53 pm 22:53 Clear 61 16.1 58 14.4 90 90 N N/A 30 1016 10 16.0934 N/A
11:53 pm 23:53 Clear 60 15.6 58 14.4 93 93 N N/A 30.01 1016 10 16.0934 N/A

Powered by AerisWeather